Time,TemperatureF,DewpointF,PressureIn,WindDirection,WindDirectionDegrees,WindSpeedMPH,WindSpeedGustMPH,Humidity,HourlyPrecipIn,Conditions,Clouds,dailyrainin,SoftwareType,DateUTC
2017-04-30 00:01:00,62.4,40.2,30.00,NW,314,4.0,19.0,44,0.00,,,0.00,Wunderground v.1.12,2017-04-30 04:01:00,
2017-04-30 00:07:00,62.1,39.3,30.00,NW,313,4.0,19.0,43,0.00,,,0.00,Wunderground v.1.12,2017-04-30 04:07:00,
2017-04-30 00:13:00,61.6,39.5,30.00,WNW,286,3.0,19.0,44,0.00,,,0.00,Wunderground v.1.12,2017-04-30 04:13:00,
2017-04-30 00:18:00,61.3,39.2,30.02,WNW,299,2.0,19.0,44,0.00,,,0.00,Wunderground v.1.12,2017-04-30 04:18:00,
2017-04-30 00:24:00,61.0,38.9,30.02,WNW,288,4.0,19.0,44,0.00,,,0.00,Wunderground v.1.12,2017-04-30 04:24:00,
2017-04-30 00:30:00,60.9,39.4,30.02,NW,313,4.0,4.0,45,0.00,,,0.00,Wunderground v.1.12,2017-04-30 04:30:00,
2017-04-30 00:35:00,60.2,38.8,30.02,WNW,292,2.0,19.0,45,0.00,,,0.00,Wunderground v.1.12,2017-04-30 04:35:00,
2017-04-30 00:41:00,59.9,37.9,30.02,WNW,295,2.0,19.0,44,0.00,,,0.00,Wunderground v.1.12,2017-04-30 04:41:00,
2017-04-30 00:46:00,60.1,36.9,30.04,WNW,300,3.0,19.0,42,0.00,,,0.00,Wunderground v.1.12,2017-04-30 04:46:00,
2017-04-30 00:52:00,59.9,37.9,30.04,WNW,301,3.0,19.0,44,0.00,,,0.00,Wunderground v.1.12,2017-04-30 04:52:00,
2017-04-30 00:58:00,59.3,37.4,30.04,NW,309,3.0,19.0,44,0.00,,,0.00,Wunderground v.1.12,2017-04-30 04:58:00,
2017-04-30 01:04:00,58.9,37.0,30.05,NW,305,2.0,19.0,44,0.00,,,0.00,Wunderground v.1.12,2017-04-30 05:04:00,
2017-04-30 01:10:00,58.6,36.7,30.05,WNW,283,1.0,19.0,44,0.00,,,0.00,Wunderground v.1.12,2017-04-30 05:10:00,
2017-04-30 01:15:00,58.4,36.6,30.06,WNW,303,2.0,19.0,44,0.00,,,0.00,Wunderground v.1.12,2017-04-30 05:15:00,
2017-04-30 01:21:00,58.3,36.5,30.06,West,277,3.0,19.0,44,0.00,,,0.00,Wunderground v.1.12,2017-04-30 05:21:00,
2017-04-30 01:26:00,58.1,36.3,30.06,WNW,294,3.0,19.0,44,0.00,,,0.00,Wunderground v.1.12,2017-04-30 05:26:00,
2017-04-30 01:32:00,58.0,36.8,30.06,WNW,303,3.0,19.0,45,0.00,,,0.00,Wunderground v.1.12,2017-04-30 05:32:00,
2017-04-30 01:38:00,57.6,37.0,30.06,WNW,300,1.0,19.0,46,0.00,,,0.00,Wunderground v.1.12,2017-04-30 05:38:00,
2017-04-30 01:43:00,57.2,36.6,30.06,WNW,298,0.0,19.0,46,0.00,,,0.00,Wunderground v.1.12,2017-04-30 05:43:00,
2017-04-30 01:49:00,56.9,36.9,30.07,WNW,298,0.0,19.0,47,0.00,,,0.00,Wunderground v.1.12,2017-04-30 05:49:00,
2017-04-30 01:54:00,56.5,37.0,30.07,WNW,290,1.0,19.0,48,0.00,,,0.00,Wunderground v.1.12,2017-04-30 05:54:00,
2017-04-30 02:00:00,56.2,36.8,30.09,WNW,290,1.0,1.0,48,0.00,,,0.00,Wunderground v.1.12,2017-04-30 06:00:00,
2017-04-30 02:06:00,56.0,34.9,30.09,NW,322,3.0,19.0,45,0.00,,,0.00,Wunderground v.1.12,2017-04-30 06:06:00,
2017-04-30 02:11:00,56.2,35.1,30.09,NNW,331,4.0,19.0,45,0.00,,,0.00,Wunderground v.1.12,2017-04-30 06:11:00,
2017-04-30 02:17:00,55.9,35.4,30.11,NW,308,4.0,19.0,46,0.00,,,0.00,Wunderground v.1.12,2017-04-30 06:17:00,
2017-04-30 02:22:00,55.4,34.9,30.11,NNW,332,4.0,19.0,46,0.00,,,0.00,Wunderground v.1.12,2017-04-30 06:22:00,
2017-04-30 02:28:00,55.1,34.1,30.11,NW,322,4.0,19.0,45,0.00,,,0.00,Wunderground v.1.12,2017-04-30 06:28:00,
2017-04-30 02:31:00,55.0,35.1,30.11,WNW,303,3.0,19.0,47,0.00,,,0.00,Wunderground v.1.12,2017-04-30 06:31:00,
2017-04-30 02:37:00,54.4,34.6,30.11,NW,315,2.0,19.0,47,0.00,,,0.00,Wunderground v.1.12,2017-04-30 06:37:00,
2017-04-30 02:42:00,54.2,34.4,30.11,NW,304,3.0,7.0,47,0.00,,,0.00,Wunderground v.1.12,2017-04-30 06:42:00,
2017-04-30 02:48:00,53.9,34.6,30.12,WNW,287,3.0,19.0,48,0.00,,,0.00,Wunderground v.1.12,2017-04-30 06:48:00,
2017-04-30 02:54:00,53.8,33.5,30.12,WNW,296,6.0,19.0,46,0.00,,,0.00,Wunderground v.1.12,2017-04-30 06:54:00,
2017-04-30 02:59:00,53.5,33.2,30.13,West,273,6.0,19.0,46,0.00,,,0.00,Wunderground v.1.12,2017-04-30 06:59:00,
2017-04-30 03:05:00,53.1,31.7,30.13,NW,308,6.0,19.0,44,0.00,,,0.00,Wunderground v.1.12,2017-04-30 07:05:00,
2017-04-30 03:11:00,52.8,31.5,30.13,WNW,302,8.0,19.0,44,0.00,,,0.00,Wunderground v.1.12,2017-04-30 07:11:00,
2017-04-30 03:16:00,52.5,31.8,30.13,NW,317,7.0,19.0,45,0.00,,,0.00,Wunderground v.1.12,2017-04-30 07:16:00,
2017-04-30 03:22:00,51.9,31.2,30.13,West,281,4.0,19.0,45,0.00,,,0.00,Wunderground v.1.12,2017-04-30 07:22:00,
2017-04-30 03:27:00,51.7,32.1,30.13,WNW,300,4.0,19.0,47,0.00,,,0.00,Wunderground v.1.12,2017-04-30 07:27:00,
2017-04-30 03:31:00,51.4,31.3,30.14,West,276,5.0,19.0,46,0.00,,,0.00,Wunderground v.1.12,2017-04-30 07:31:00,
2017-04-30 03:36:00,51.4,31.8,30.14,NNW,335,6.0,19.0,47,0.00,,,0.00,Wunderground v.1.12,2017-04-30 07:36:00,
2017-04-30 03:42:00,51.1,31.6,30.14,WNW,295,4.0,19.0,47,0.00,,,0.00,Wunderground v.1.12,2017-04-30 07:42:00,
2017-04-30 03:47:00,50.7,31.7,30.16,WNW,298,2.0,19.0,48,0.00,,,0.00,Wunderground v.1.12,2017-04-30 07:47:00,
2017-04-30 03:53:00,50.4,30.4,30.16,WSW,257,4.0,19.0,46,0.00,,,0.00,Wunderground v.1.12,2017-04-30 07:53:00,
2017-04-30 03:59:00,50.2,29.7,30.16,WNW,300,6.0,19.0,45,0.00,,,0.00,Wunderground v.1.12,2017-04-30 07:59:00,
2017-04-30 04:04:00,49.9,29.9,30.16,West,281,6.0,19.0,46,0.00,,,0.00,Wunderground v.1.12,2017-04-30 08:04:00,
2017-04-30 04:10:00,49.5,30.1,30.16,WNW,295,5.0,19.0,47,0.00,,,0.00,Wunderground v.1.12,2017-04-30 08:10:00,
2017-04-30 04:15:00,49.4,29.5,30.17,NW,309,4.0,4.0,46,0.00,,,0.00,Wunderground v.1.12,2017-04-30 08:15:00,
2017-04-30 04:21:00,48.9,29.0,30.17,West,273,3.0,19.0,46,0.00,,,0.00,Wunderground v.1.12,2017-04-30 08:21:00,
2017-04-30 04:27:00,48.6,30.3,30.17,West,276,1.0,19.0,49,0.00,,,0.00,Wunderground v.1.12,2017-04-30 08:27:00,
2017-04-30 04:32:00,48.0,30.7,30.17,WNW,289,1.0,19.0,51,0.00,,,0.00,Wunderground v.1.12,2017-04-30 08:32:00,
2017-04-30 04:38:00,47.4,29.7,30.17,WNW,292,1.0,19.0,50,0.00,,,0.00,Wunderground v.1.12,2017-04-30 08:38:00,
2017-04-30 04:43:00,47.3,29.1,30.17,WNW,289,3.0,19.0,49,0.00,,,0.00,Wunderground v.1.12,2017-04-30 08:43:00,
2017-04-30 04:49:00,47.1,28.4,30.16,NW,323,4.0,19.0,48,0.00,,,0.00,Wunderground v.1.12,2017-04-30 08:49:00,
2017-04-30 04:55:00,47.1,28.9,30.16,WNW,300,4.0,19.0,49,0.00,,,0.00,Wunderground v.1.12,2017-04-30 08:55:00,
2017-04-30 05:00:00,46.8,28.1,30.17,NW,315,4.0,4.0,48,0.00,,,0.00,Wunderground v.1.12,2017-04-30 09:00:00,
2017-04-30 05:06:00,46.4,27.8,30.17,NNW,343,2.0,3.0,48,0.00,,,0.00,Wunderground v.1.12,2017-04-30 09:06:00,
2017-04-30 05:11:00,46.2,28.1,30.17,West,268,2.0,19.0,49,0.00,,,0.00,Wunderground v.1.12,2017-04-30 09:11:00,
2017-04-30 05:17:00,46.0,27.9,30.17,WNW,294,3.0,19.0,49,0.00,,,0.00,Wunderground v.1.12,2017-04-30 09:17:00,
2017-04-30 05:19:00,46.0,27.9,30.17,WNW,294,2.0,19.0,49,0.00,,,0.00,Wunderground v.1.12,2017-04-30 09:19:00,
2017-04-30 05:25:00,46.0,27.9,30.17,NW,323,1.0,19.0,49,0.00,,,0.00,Wunderground v.1.12,2017-04-30 09:25:00,
2017-04-30 05:30:00,45.7,28.1,30.19,NW,320,1.0,1.0,50,0.00,,,0.00,Wunderground v.1.12,2017-04-30 09:30:00,
2017-04-30 05:36:00,45.4,28.3,30.19,NW,321,0.0,19.0,51,0.00,,,0.00,Wunderground v.1.12,2017-04-30 09:36:00,
2017-04-30 05:42:00,45.1,29.0,30.19,NW,321,0.0,19.0,53,0.00,,,0.00,Wunderground v.1.12,2017-04-30 09:42:00,
2017-04-30 05:47:00,44.6,28.0,30.19,NW,321,0.0,19.0,52,0.00,,,0.00,Wunderground v.1.12,2017-04-30 09:47:00,
2017-04-30 05:53:00,44.3,28.2,30.19,NW,321,0.0,19.0,53,0.00,,,0.00,Wunderground v.1.12,2017-04-30 09:53:00,
2017-04-30 05:58:00,44.2,27.7,30.19,NW,321,0.0,19.0,52,0.00,,,0.00,Wunderground v.1.12,2017-04-30 09:58:00,
2017-04-30 06:04:00,44.2,29.0,30.20,NW,316,0.0,19.0,55,0.00,,,0.00,Wunderground v.1.12,2017-04-30 10:04:00,
2017-04-30 06:10:00,44.2,28.1,30.20,NW,311,1.0,1.0,53,0.00,,,0.00,Wunderground v.1.12,2017-04-30 10:10:00,
2017-04-30 06:15:00,44.3,27.8,30.21,NW,311,1.0,1.0,52,0.00,,,0.00,Wunderground v.1.12,2017-04-30 10:15:00,
2017-04-30 06:21:00,44.5,28.0,30.21,NW,312,1.0,5.0,52,0.00,,,0.00,Wunderground v.1.12,2017-04-30 10:21:00,
2017-04-30 06:26:00,44.5,27.5,30.21,NW,313,1.0,5.0,51,0.00,,,0.00,Wunderground v.1.12,2017-04-30 10:26:00,
2017-04-30 06:32:00,44.6,28.0,30.22,NW,313,0.0,19.0,52,0.00,,,0.00,Wunderground v.1.12,2017-04-30 10:32:00,
2017-04-30 06:38:00,44.5,28.9,30.22,NW,313,0.0,19.0,54,0.00,,,0.00,Wunderground v.1.12,2017-04-30 10:38:00,
2017-04-30 06:43:00,44.5,27.5,30.22,NW,313,0.0,19.0,51,0.00,,,0.00,Wunderground v.1.12,2017-04-30 10:43:00,
2017-04-30 06:49:00,44.8,28.2,30.23,NW,313,0.0,19.0,52,0.00,,,0.00,Wunderground v.1.12,2017-04-30 10:49:00,
2017-04-30 06:54:00,45.1,28.0,30.23,NW,314,1.0,19.0,51,0.00,,,0.00,Wunderground v.1.12,2017-04-30 10:54:00,
2017-04-30 07:00:00,45.4,29.3,30.24,NW,314,1.0,19.0,53,0.00,,,0.00,Wunderground v.1.12,2017-04-30 11:00:00,
2017-04-30 07:06:00,45.5,28.4,30.24,NW,314,1.0,19.0,51,0.00,,,0.00,Wunderground v.1.12,2017-04-30 11:06:00,
2017-04-30 07:11:00,45.8,27.7,30.24,NW,314,0.0,19.0,49,0.00,,,0.00,Wunderground v.1.12,2017-04-30 11:11:00,
2017-04-30 07:17:00,46.1,27.5,30.25,NW,314,0.0,19.0,48,0.00,,,0.00,Wunderground v.1.12,2017-04-30 11:17:00,
2017-04-30 07:22:00,46.2,28.1,30.25,NW,314,0.0,19.0,49,0.00,,,0.00,Wunderground v.1.12,2017-04-30 11:22:00,
2017-04-30 07:28:00,46.4,27.2,30.25,NW,314,0.0,19.0,47,0.00,,,0.00,Wunderground v.1.12,2017-04-30 11:28:00,
2017-04-30 07:33:00,46.5,27.3,30.25,NW,314,0.0,19.0,47,0.00,,,0.00,Wunderground v.1.12,2017-04-30 11:33:00,
2017-04-30 07:39:00,46.5,26.8,30.25,NW,315,1.0,19.0,46,0.00,,,0.00,Wunderground v.1.12,2017-04-30 11:39:00,
2017-04-30 07:45:00,46.5,27.8,30.25,NW,315,1.0,1.0,48,0.00,,,0.00,Wunderground v.1.12,2017-04-30 11:45:00,
2017-04-30 07:50:00,46.7,27.0,30.25,NW,315,0.0,19.0,46,0.00,,,0.00,Wunderground v.1.12,2017-04-30 11:50:00,
2017-04-30 07:56:00,47.1,27.4,30.25,NW,315,0.0,19.0,46,0.00,,,0.00,Wunderground v.1.12,2017-04-30 11:56:00,
2017-04-30 08:01:00,47.4,27.6,30.27,ESE,105,0.0,19.0,46,0.00,,,0.00,Wunderground v.1.12,2017-04-30 12:01:00,
2017-04-30 08:07:00,47.7,27.9,30.27,ESE,105,0.0,19.0,46,0.00,,,0.00,Wunderground v.1.12,2017-04-30 12:07:00,
2017-04-30 08:13:00,48.0,27.1,30.27,ESE,105,1.0,19.0,44,0.00,,,0.00,Wunderground v.1.12,2017-04-30 12:13:00,
2017-04-30 08:18:00,48.0,27.1,30.27,ESE,115,0.0,19.0,44,0.00,,,0.00,Wunderground v.1.12,2017-04-30 12:18:00,
2017-04-30 08:24:00,47.6,28.3,30.27,SE,126,1.0,19.0,47,0.00,,,0.00,Wunderground v.1.12,2017-04-30 12:24:00,
2017-04-30 08:29:00,47.9,28.1,30.27,East,87,1.0,19.0,46,0.00,,,0.00,Wunderground v.1.12,2017-04-30 12:29:00,
2017-04-30 08:35:00,48.5,28.1,30.27,East,98,1.0,19.0,45,0.00,,,0.00,Wunderground v.1.12,2017-04-30 12:35:00,
2017-04-30 08:41:00,48.2,28.9,30.27,East,93,1.0,19.0,47,0.00,,,0.00,Wunderground v.1.12,2017-04-30 12:41:00,
2017-04-30 08:46:00,48.3,28.5,30.28,East,97,1.0,19.0,46,0.00,,,0.00,Wunderground v.1.12,2017-04-30 12:46:00,
2017-04-30 08:52:00,48.6,29.3,30.28,East,100,1.0,19.0,47,0.00,,,0.00,Wunderground v.1.12,2017-04-30 12:52:00,
2017-04-30 08:57:00,48.6,29.3,30.28,NNE,21,1.0,19.0,47,0.00,,,0.00,Wunderground v.1.12,2017-04-30 12:57:00,
2017-04-30 09:03:00,48.9,29.0,30.29,NNW,342,0.0,19.0,46,0.00,,,0.00,Wunderground v.1.12,2017-04-30 13:03:00,
2017-04-30 09:09:00,49.1,29.2,30.29,ENE,78,1.0,19.0,46,0.00,,,0.00,Wunderground v.1.12,2017-04-30 13:09:00,
2017-04-30 09:14:00,48.9,29.5,30.27,ESE,115,2.0,19.0,47,0.00,,,0.00,Wunderground v.1.12,2017-04-30 13:14:00,
2017-04-30 09:20:00,48.2,29.4,30.27,East,98,3.0,19.0,48,0.00,,,0.00,Wunderground v.1.12,2017-04-30 13:20:00,
2017-04-30 09:25:00,48.0,30.2,30.27,East,90,3.0,19.0,50,0.00,,,0.00,Wunderground v.1.12,2017-04-30 13:25:00,
2017-04-30 09:31:00,48.2,28.9,30.27,East,94,3.0,19.0,47,0.00,,,0.00,Wunderground v.1.12,2017-04-30 13:31:00,
2017-04-30 09:37:00,48.6,29.3,30.27,ESE,104,2.0,4.0,47,0.00,,,0.00,Wunderground v.1.12,2017-04-30 13:37:00,
2017-04-30 09:42:00,49.4,30.5,30.27,ESE,107,2.0,19.0,48,0.00,,,0.00,Wunderground v.1.12,2017-04-30 13:42:00,
2017-04-30 09:48:00,48.6,30.3,30.27,ESE,103,3.0,19.0,49,0.00,,,0.00,Wunderground v.1.12,2017-04-30 13:48:00,
2017-04-30 09:53:00,48.0,29.2,30.27,ESE,112,5.0,19.0,48,0.00,,,0.00,Wunderground v.1.12,2017-04-30 13:53:00,
2017-04-30 09:59:00,48.8,30.0,30.27,ESE,111,3.0,19.0,48,0.00,,,0.00,Wunderground v.1.12,2017-04-30 13:59:00,
2017-04-30 10:05:00,49.8,29.8,30.27,SE,124,1.0,19.0,46,0.00,,,0.00,Wunderground v.1.12,2017-04-30 14:05:00,
2017-04-30 10:06:00,49.9,29.4,30.27,East,95,1.0,19.0,45,0.00,,,0.00,Wunderground v.1.12,2017-04-30 14:06:00,
2017-04-30 10:11:00,49.4,30.0,30.27,East,96,2.0,3.0,47,0.00,,,0.00,Wunderground v.1.12,2017-04-30 14:11:00,
2017-04-30 10:17:00,49.5,30.1,30.27,ESE,112,2.0,19.0,47,0.00,,,0.00,Wunderground v.1.12,2017-04-30 14:17:00,
2017-04-30 10:23:00,49.9,31.0,30.27,SE,144,2.0,19.0,48,0.00,,,0.00,Wunderground v.1.12,2017-04-30 14:23:00,
2017-04-30 10:28:00,49.8,30.9,30.27,East,94,2.0,19.0,48,0.00,,,0.00,Wunderground v.1.12,2017-04-30 14:28:00,
2017-04-30 10:34:00,49.1,30.2,30.27,SE,131,4.0,19.0,48,0.00,,,0.00,Wunderground v.1.12,2017-04-30 14:34:00,
2017-04-30 10:39:00,49.2,30.3,30.27,East,96,3.0,19.0,48,0.00,,,0.00,Wunderground v.1.12,2017-04-30 14:39:00,
2017-04-30 10:45:00,49.2,30.8,30.27,East,87,3.0,3.0,49,0.00,,,0.00,Wunderground v.1.12,2017-04-30 14:45:00,
2017-04-30 10:49:00,49.9,31.0,30.27,ESE,106,2.0,19.0,48,0.00,,,0.00,Wunderground v.1.12,2017-04-30 14:49:00,
2017-04-30 10:55:00,51.0,30.9,30.27,East,90,1.0,19.0,46,0.00,,,0.00,Wunderground v.1.12,2017-04-30 14:55:00,
2017-04-30 11:00:00,49.9,29.9,30.28,SSE,161,2.0,2.0,46,0.00,,,0.00,Wunderground v.1.12,2017-04-30 15:00:00,
2017-04-30 11:06:00,50.2,31.2,30.28,East,90,3.0,19.0,48,0.00,,,0.00,Wunderground v.1.12,2017-04-30 15:06:00,
2017-04-30 11:12:00,49.2,30.8,30.28,ESE,111,3.0,19.0,49,0.00,,,0.00,Wunderground v.1.12,2017-04-30 15:12:00,
2017-04-30 11:17:00,49.6,31.7,30.27,NE,53,3.0,19.0,50,0.00,,,0.00,Wunderground v.1.12,2017-04-30 15:17:00,
2017-04-30 11:23:00,50.4,31.9,30.27,ESE,104,2.0,19.0,49,0.00,,,0.00,Wunderground v.1.12,2017-04-30 15:23:00,
2017-04-30 11:28:00,50.1,32.2,30.27,NE,51,3.0,19.0,50,0.00,,,0.00,Wunderground v.1.12,2017-04-30 15:28:00,
2017-04-30 11:34:00,50.5,32.0,30.27,SSE,152,2.0,19.0,49,0.00,,,0.00,Wunderground v.1.12,2017-04-30 15:34:00,
2017-04-30 11:39:00,50.4,31.9,30.27,East,87,2.0,19.0,49,0.00,,,0.00,Wunderground v.1.12,2017-04-30 15:39:00,
2017-04-30 11:45:00,50.1,31.2,30.28,East,83,2.0,19.0,48,0.00,,,0.00,Wunderground v.1.12,2017-04-30 15:45:00,
2017-04-30 11:51:00,49.2,31.8,30.28,ENE,76,2.0,19.0,51,0.00,,,0.00,Wunderground v.1.12,2017-04-30 15:51:00,
2017-04-30 11:56:00,49.4,30.5,30.28,East,80,3.0,19.0,48,0.00,,,0.00,Wunderground v.1.12,2017-04-30 15:56:00,
2017-04-30 12:02:00,49.8,30.9,30.28,East,92,3.0,19.0,48,0.00,,,0.00,Wunderground v.1.12,2017-04-30 16:02:00,
2017-04-30 12:07:00,49.8,30.9,30.28,South,178,2.0,19.0,48,0.00,,,0.00,Wunderground v.1.12,2017-04-30 16:07:00,
2017-04-30 12:13:00,49.4,31.5,30.28,SSE,150,2.0,19.0,50,0.00,,,0.00,Wunderground v.1.12,2017-04-30 16:13:00,
2017-04-30 12:19:00,49.6,31.2,30.30,ESE,117,1.0,19.0,49,0.00,,,0.00,Wunderground v.1.12,2017-04-30 16:19:00,
2017-04-30 12:24:00,49.5,32.1,30.30,ESE,114,1.0,19.0,51,0.00,,,0.00,Wunderground v.1.12,2017-04-30 16:24:00,
2017-04-30 12:30:00,49.4,32.0,30.30,East,99,1.0,19.0,51,0.00,,,0.00,Wunderground v.1.12,2017-04-30 16:30:00,
2017-04-30 12:35:00,47.9,31.1,30.30,East,86,3.0,19.0,52,0.00,,,0.00,Wunderground v.1.12,2017-04-30 16:35:00,
2017-04-30 12:41:00,47.0,32.1,30.30,ESE,112,4.0,19.0,56,0.00,,,0.00,Wunderground v.1.12,2017-04-30 16:41:00,
2017-04-30 12:47:00,46.8,32.4,30.29,ESE,123,3.0,19.0,57,0.00,,,0.00,Wunderground v.1.12,2017-04-30 16:47:00,
2017-04-30 12:52:00,46.5,32.5,30.29,ESE,115,3.0,19.0,58,0.00,,,0.00,Wunderground v.1.12,2017-04-30 16:52:00,
2017-04-30 12:58:00,46.2,31.8,30.29,ESE,111,2.0,19.0,57,0.00,,,0.00,Wunderground v.1.12,2017-04-30 16:58:00,
2017-04-30 13:03:00,46.1,31.7,30.30,East,87,2.0,19.0,57,0.00,,,0.00,Wunderground v.1.12,2017-04-30 17:03:00,
2017-04-30 13:09:00,46.1,31.7,30.30,East,98,2.0,19.0,57,0.00,,,0.00,Wunderground v.1.12,2017-04-30 17:09:00,
2017-04-30 13:15:00,46.1,31.7,30.28,East,97,2.0,2.0,57,0.00,,,0.00,Wunderground v.1.12,2017-04-30 17:15:00,
2017-04-30 13:20:00,46.7,31.8,30.28,SE,129,3.0,19.0,56,0.00,,,0.00,Wunderground v.1.12,2017-04-30 17:20:00,
2017-04-30 13:26:00,46.5,32.1,30.28,ESE,115,4.0,19.0,57,0.00,,,0.00,Wunderground v.1.12,2017-04-30 17:26:00,
2017-04-30 13:31:00,46.8,32.4,30.28,South,184,3.0,19.0,57,0.00,,,0.00,Wunderground v.1.12,2017-04-30 17:31:00,
2017-04-30 13:37:00,47.3,32.4,30.28,East,98,2.0,19.0,56,0.00,,,0.00,Wunderground v.1.12,2017-04-30 17:37:00,
2017-04-30 13:42:00,47.1,33.1,30.28,ESE,105,3.0,19.0,58,0.00,,,0.00,Wunderground v.1.12,2017-04-30 17:42:00,
2017-04-30 13:48:00,47.0,32.5,30.28,SSE,165,2.0,19.0,57,0.00,,,0.00,Wunderground v.1.12,2017-04-30 17:48:00,
2017-04-30 13:54:00,47.0,33.0,30.28,East,93,3.0,19.0,58,0.00,,,0.00,Wunderground v.1.12,2017-04-30 17:54:00,
2017-04-30 13:59:00,47.3,32.8,30.28,East,94,3.0,19.0,57,0.00,,,0.00,Wunderground v.1.12,2017-04-30 17:59:00,
2017-04-30 14:05:00,47.3,32.4,30.28,ENE,70,3.0,3.0,56,0.00,,,0.00,Wunderground v.1.12,2017-04-30 18:05:00,
2017-04-30 14:10:00,47.0,32.1,30.28,ESE,102,4.0,4.0,56,0.00,,,0.00,Wunderground v.1.12,2017-04-30 18:10:00,
2017-04-30 14:16:00,46.5,31.6,30.28,East,90,4.0,19.0,56,0.00,,,0.00,Wunderground v.1.12,2017-04-30 18:16:00,